IRIDIUM 62 [-] (25285 NORAD) Tracking and Keplerian Element Data

This shows tracking and keplerian element data for the satellite.

Feedback or suggestion? Click here.




ElementValue
Catalog25285
NameIRIDIUM 62 [-]
Epoch Orbit7810
Epoch Day311.14065856
Epoch Year2018
RAAN9.9571
Inclination86.3739
Eccentricity0.0058337
Argument of Perigee282.1166
Mean Anonmoly77.5506
Mean Motion16.44616921
Decay Rate0.32236295
L11 25285U 98021A 18311.14065856 .32236295 -12933-5 30308-3 0 9994
L22 25285 86.3739 9.9571 0058337 282.1166 77.5506 16.44616921 78109

Live tracking and technical data element details for IRIDIUM 62 [-] (NORAD 25285). IRIDIUM 62 [-] can be tracked NOW for your location showing map with azimuth and elevation plus other details from your city location.

Track the satellite on the map from your city or location and see movement details for azimuth, elevation, latitude, longitude, range, height, and movement on the map or in text.







IsCatalogInMostPopularTable: catalog: 25285, numindb: 45
Update: records affected: 1



GetName: 25285 IRIDIUM 62 [-]

Hit Count: updated at: Sat, 15 Dec 2018 19:28:27 GMT